Weather in Vysokoe

Russia / Vologda Oblast     59°37′44″N   39°50′39″E
temp.,
°C
wind,
m/s
gust,
m/s
humid.,
%
clouds,
%
prec.,
mm/h
press.,
hPa
HPBL,
m
9 march, tue
tue900:00−19n389696 0.0 1012298
03:00−23n379573 0.0 1014236
06:00−25n379646 0.0 1016245
09:00−25nne369257 0.0 1017268
12:00−21n358776 0.0 1019397
15:00−18n368583 0.0 1020541
18:00−21n3893100 0.0 1021413
21:00−23n3109565 0.0 1024288
10 march, wed
wed1000:00−25n26960 0.0 1025168
03:00−27n23970 0.0 102686
06:00−27nnw24960 0.0 1027102
09:00−23nw23880 0.0 1027171
12:00−17wnw358076 0.0 1027383
15:00−15nw358487 0.1 1027602
18:00−17nw2395100 0.0 102750
21:00−19nw239999 0.1 102852
11 march, thu
thu1100:00−19nw2310074 0.0 102961
03:00−20wnw239959 0.0 102961
06:00−20wnw239945 0.0 102977
09:00−17wnw249249 0.0 1029198
12:00−11w248318 0.0 1029319
15:00−8w35789 0.0 1028527
18:00−12wsw239526 0.0 102645
21:00−15sw379747 0.0 1027138
12 march, fri
fri1200:00−17sw279748 0.0 1026150
03:00−18ssw399234 0.0 1025207
06:00−19ssw36920 0.0 1024151
09:00−16ssw37820 0.0 1023286
12:00−11s48770 0.0 1023380
15:00−8s59720 0.0 1021515
18:00−10s412820 0.0 1020472
21:00−12s513900 0.0 1019500
13 march, sat
sat1300:00−12s4149174 0.0 1018556
03:00−13s5149082 0.0 1017539
06:00−12s51488100 0.0 1016659
09:00−10s61287100 0.1 1015739
12:00−7s61185100 0.1 1015810
15:00−6s61085100 0.3 1014882
18:00−7s51093100 0.4 1013730
21:00−7s41094100 0.7 1012532